Precipitable_Water
0.31 0.33 0.34 0.34 0.35 0.36 0.39 0.41 0.41 0.40 0.40 0.40 0.39 0.39 0.37 0.36 0.33 0.31 0.31 0.32 0.32 0.35 0.37 0.36 0.40 0.43 0.43 0.43 0.44 0.44 0.44 0.43 0.43 0.43 0.43 0.43 0.42 0.41 0.41 0.41 0.42 0.45 0.44 0.46 0.47 0.42 0.38 0.36 0.33 0.30 0.28 0.29 0.34 0.36 0.36 0.38 0.38 0.39 0.41 0.44 0.48 0.53 0.56 0.57 0.55 0.53 0.52 0.52 0.52 0.51 0.51 0.52 0.51 0.51
0.28 0.29 0.31 0.32 0.32 0.35 0.35 0.36 0.38 0.39 0.39 0.39 0.38 0.38 0.38 0.37 0.34 0.33 0.30 0.30 0.33 0.33 0.36 0.37 0.36 0.39 0.40 0.41 0.42 0.42 0.43 0.43 0.43 0.42 0.42 0.43 0.42 0.41 0.41 0.40 0.41 0.43 0.44 0.45 0.46 0.44 0.41 0.38 0.36 0.35 0.32 0.29 0.26 0.26 0.29 0.33 0.36 0.38 0.39 0.39 0.41 0.41 0.42 0.44 0.44 0.44 0.44 0.45 0.46 0.46 0.46 0.47 0.47 0.48
0.26 0.26 0.27 0.29 0.29 0.30 0.31 0.33 0.35 0.36 0.38 0.38 0.38 0.38 0.38 0.37 0.36 0.34 0.33 0.29 0.33 0.35 0.33 0.36 0.37 0.37 0.39 0.40 0.40 0.41 0.41 0.42 0.43 0.42 0.42 0.42 0.42 0.42 0.41 0.40 0.39 0.40 0.42 0.43 0.44 0.44 0.44 0.41 0.39 0.38 0.37 0.34 0.31 0.30 0.28 0.28 0.31 0.35 0.38 0.38 0.39 0.40 0.39 0.39 0.37 0.36 0.37 0.39 0.39 0.39 0.41 0.42 0.41 0.43
0.27 0.26 0.25 0.26 0.26 0.28 0.29 0.30 0.32 0.33 0.35 0.36 0.37 0.38 0.37 0.36 0.36 0.36 0.34 0.31 0.29 0.34 0.35 0.36 0.37 0.38 0.38 0.39 0.39 0.39 0.40 0.41 0.41 0.41 0.41 0.41 0.41 0.41 0.41 0.40 0.39 0.38 0.38 0.40 0.42 0.43 0.44 0.43 0.42 0.40 0.39 0.39 0.38 0.36 0.35 0.34 0.31 0.31 0.33 0.36 0.37 0.37 0.36 0.34 0.32 0.33 0.35 0.35 0.36 0.36 0.35 0.36 0.37 0.38
0.27 0.26 0.25 0.24 0.25 0.26 0.27 0.29 0.30 0.31 0.32 0.34 0.35 0.36 0.37 0.36 0.36 0.35 0.33 0.31 0.30 0.32 0.35 0.35 0.36 0.37 0.37 0.36 0.38 0.38 0.39 0.39 0.40 0.40 0.40 0.40 0.40 0.40 0.40 0.39 0.39 0.38 0.38 0.39 0.41 0.42 0.42 0.43 0.42 0.41 0.40 0.40 0.40 0.41 0.40 0.39 0.37 0.34 0.32 0.31 0.33 0.33 0.31 0.30 0.30 0.30 0.31 0.33 0.35 0.36 0.37 0.38 0.39 0.39
0.27 0.26 0.24 0.24 0.24 0.25 0.27 0.27 0.29 0.30 0.30 0.31 0.32 0.33 0.34 0.35 0.35 0.37 0.34 0.33 0.31 0.29 0.32 0.32 0.34 0.35 0.36 0.34 0.36 0.36 0.37 0.38 0.39 0.40 0.39 0.39 0.39 0.39 0.39 0.39 0.38 0.38 0.38 0.38 0.39 0.41 0.41 0.41 0.42 0.42 0.41 0.40 0.41 0.42 0.42 0.42 0.41 0.40 0.39 0.37 0.36 0.35 0.36 0.36 0.36 0.37 0.37 0.38 0.39 0.39 0.40 0.40 0.40 0.41
0.25 0.24 0.24 0.24 0.25 0.26 0.26 0.26 0.28 0.29 0.29 0.29 0.29 0.30 0.32 0.33 0.34 0.36 0.36 0.34 0.31 0.31 0.31 0.32 0.32 0.32 0.33 0.33 0.34 0.35 0.36 0.37 0.38 0.38 0.39 0.39 0.39 0.39 0.39 0.38 0.38 0.38 0.37 0.37 0.37 0.38 0.40 0.41 0.42 0.42 0.42 0.41 0.41 0.42 0.42 0.44 0.43 0.41 0.41 0.42 0.41 0.39 0.38 0.37 0.37 0.37 0.37 0.38 0.38 0.39 0.40 0.40 0.41 0.41
0.25 0.24 0.24 0.24 0.25 0.26 0.25 0.25 0.26 0.27 0.29 0.29 0.28 0.28 0.30 0.31 0.32 0.34 0.36 0.36 0.34 0.33 0.31 0.31 0.31 0.32 0.32 0.33 0.34 0.35 0.35 0.35 0.36 0.37 0.38 0.38 0.38 0.39 0.39 0.39 0.38 0.38 0.37 0.37 0.38 0.38 0.39 0.41 0.42 0.43 0.43 0.42 0.43 0.42 0.41 0.42 0.42 0.42 0.42 0.43 0.43 0.41 0.40 0.38 0.37 0.36 0.37 0.37 0.37 0.38 0.39 0.40 0.41 0.41
0.26 0.26 0.25 0.25 0.26 0.25 0.24 0.24 0.25 0.27 0.27 0.29 0.29 0.27 0.28 0.29 0.30 0.32 0.34 0.35 0.35 0.33 0.32 0.32 0.32 0.32 0.32 0.33 0.33 0.34 0.33 0.34 0.35 0.35 0.36 0.36 0.37 0.38 0.39 0.39 0.39 0.39 0.38 0.37 0.38 0.39 0.38 0.38 0.40 0.42 0.43 0.43 0.43 0.42 0.40 0.41 0.41 0.42 0.42 0.41 0.41 0.41 0.40 0.39 0.38 0.37 0.36 0.36 0.36 0.37 0.38 0.39 0.39 0.40
0.27 0.27 0.27 0.27 0.27 0.27 0.25 0.24 0.24 0.26 0.26 0.28 0.29 0.28 0.27 0.27 0.29 0.29 0.31 0.33 0.33 0.33 0.33 0.33 0.31 0.31 0.30 0.30 0.31 0.32 0.33 0.32 0.32 0.33 0.35 0.36 0.37 0.36 0.36 0.38 0.39 0.39 0.38 0.37 0.37 0.38 0.39 0.38 0.38 0.39 0.41 0.42 0.42 0.41 0.40 0.40 0.40 0.40 0.40 0.40 0.39 0.39 0.39 0.39 0.39 0.39 0.38 0.37 0.37 0.37 0.37 0.37 0.38 0.38
0.29 0.29 0.28 0.28 0.28 0.28 0.27 0.25 0.25 0.25 0.26 0.26 0.27 0.28 0.29 0.28 0.26 0.27 0.28 0.29 0.30 0.31 0.31 0.32 0.32 0.31 0.31 0.31 0.30 0.32 0.33 0.32 0.32 0.31 0.32 0.33 0.35 0.36 0.35 0.35 0.36 0.37 0.37 0.37 0.37 0.37 0.38 0.39 0.39 0.38 0.39 0.41 0.41 0.40 0.41 0.42 0.40 0.40 0.39 0.39 0.38 0.38 0.37 0.38 0.38 0.39 0.38 0.38 0.38 0.37 0.37 0.37 0.36 0.36
0.29 0.29 0.29 0.28 0.28 0.27 0.27 0.26 0.26 0.26 0.26 0.27 0.27 0.28 0.29 0.29 0.27 0.26 0.25 0.26 0.27 0.28 0.29 0.30 0.30 0.31 0.30 0.30 0.31 0.31 0.31 0.30 0.30 0.31 0.31 0.30 0.31 0.33 0.34 0.34 0.34 0.35 0.35 0.35 0.36 0.37 0.38 0.39 0.40 0.40 0.39 0.40 0.41 0.42 0.41 0.41 0.40 0.40 0.39 0.38 0.37 0.37 0.37 0.37 0.37 0.37 0.38 0.38 0.38 0.38 0.37 0.37 0.36 0.36
0.29 0.29 0.29 0.28 0.28 0.28 0.27 0.27 0.27 0.27 0.27 0.28 0.27 0.28 0.30 0.30 0.29 0.27 0.26 0.25 0.24 0.25 0.26 0.27 0.29 0.29 0.29 0.29 0.28 0.28 0.28 0.28 0.28 0.30 0.30 0.29 0.30 0.31 0.32 0.33 0.34 0.34 0.34 0.34 0.35 0.35 0.37 0.37 0.38 0.39 0.38 0.39 0.39 0.40 0.40 0.39 0.39 0.39 0.37 0.37 0.37 0.37 0.37 0.38 0.38 0.38 0.38 0.38 0.38 0.37 0.37 0.36 0.36 0.36
0.26 0.26 0.26 0.26 0.26 0.27 0.27 0.28 0.28 0.27 0.28 0.28 0.28 0.28 0.29 0.30 0.30 0.28 0.26 0.25 0.24 0.23 0.23 0.23 0.25 0.24 0.25 0.26 0.27 0.26 0.27 0.28 0.29 0.28 0.28 0.27 0.28 0.29 0.29 0.30 0.31 0.33 0.33 0.33 0.33 0.34 0.36 0.36 0.36 0.36 0.36 0.37 0.37 0.36 0.36 0.37 0.37 0.37 0.37 0.37 0.37 0.37 0.37 0.37 0.37 0.38 0.38 0.38 0.38 0.37 0.36 0.35 0.35 0.35
0.23 0.24 0.25 0.25 0.25 0.25 0.25 0.25 0.26 0.26 0.26 0.27 0.28 0.29 0.29 0.30 0.30 0.29 0.28 0.26 0.25 0.23 0.22 0.23 0.23 0.23 0.22 0.23 0.24 0.24 0.25 0.26 0.26 0.26 0.27 0.27 0.27 0.27 0.26 0.25 0.28 0.31 0.31 0.31 0.31 0.32 0.34 0.34 0.33 0.34 0.34 0.34 0.33 0.33 0.33 0.34 0.35 0.36 0.36 0.36 0.36 0.37 0.38 0.38 0.38 0.37 0.37 0.37 0.37 0.36 0.35 0.34 0.33 0.33
0.23 0.23 0.24 0.24 0.25 0.25 0.25 0.25 0.25 0.25 0.25 0.26 0.27 0.29 0.30 0.30 0.30 0.30 0.29 0.28 0.27 0.25 0.23 0.22 0.22 0.22 0.22 0.22 0.23 0.22 0.23 0.23 0.24 0.25 0.25 0.25 0.26 0.25 0.25 0.25 0.25 0.28 0.30 0.29 0.29 0.30 0.32 0.33 0.32 0.32 0.33 0.33 0.32 0.32 0.33 0.34 0.34 0.35 0.35 0.35 0.35 0.36 0.36 0.37 0.37 0.36 0.35 0.35 0.35 0.34 0.34 0.33 0.32 0.31
0.24 0.24 0.24 0.24 0.25 0.25 0.26 0.26 0.26 0.26 0.26 0.26 0.26 0.28 0.30 0.30 0.30 0.30 0.30 0.30 0.29 0.28 0.26 0.24 0.22 0.22 0.22 0.21 0.21 0.22 0.22 0.23 0.22 0.23 0.23 0.23 0.25 0.25 0.25 0.25 0.26 0.27 0.29 0.28 0.27 0.27 0.30 0.31 0.31 0.31 0.32 0.32 0.32 0.33 0.33 0.34 0.35 0.34 0.34 0.34 0.35 0.34 0.34 0.33 0.33 0.33 0.33 0.33 0.33 0.33 0.33 0.33 0.32 0.31
0.25 0.25 0.25 0.25 0.25 0.26 0.26 0.26 0.26 0.26 0.25 0.25 0.25 0.26 0.28 0.29 0.30 0.30 0.30 0.30 0.30 0.29 0.27 0.26 0.23 0.23 0.25 0.24 0.24 0.24 0.24 0.22 0.21 0.21 0.20 0.22 0.22 0.24 0.24 0.26 0.27 0.27 0.29 0.27 0.27 0.26 0.27 0.29 0.29 0.29 0.31 0.32 0.32 0.32 0.33 0.34 0.34 0.34 0.33 0.32 0.32 0.32 0.32 0.32 0.33 0.33 0.34 0.33 0.33 0.32 0.31 0.31 0.31 0.31
0.29 0.28 0.28 0.27 0.26 0.26 0.26 0.27 0.27 0.26 0.25 0.25 0.24 0.24 0.24 0.25 0.26 0.27 0.27 0.28 0.29 0.29 0.28 0.27 0.27 0.26 0.26 0.25 0.26 0.26 0.26 0.24 0.23 0.23 0.22 0.22 0.23 0.24 0.25 0.25 0.25 0.26 0.27 0.27 0.26 0.23 0.25 0.27 0.26 0.27 0.28 0.30 0.30 0.31 0.32 0.33 0.33 0.33 0.32 0.32 0.32 0.32 0.32 0.32 0.33 0.33 0.33 0.33 0.32 0.32 0.31 0.31 0.31 0.30
0.31 0.31 0.31 0.30 0.29 0.28 0.28 0.27 0.28 0.28 0.27 0.25 0.24 0.23 0.23 0.24 0.25 0.26 0.27 0.28 0.30 0.30 0.29 0.28 0.28 0.28 0.28 0.27 0.27 0.27 0.26 0.25 0.25 0.24 0.24 0.24 0.23 0.21 0.20 0.20 0.21 0.22 0.25 0.27 0.25 0.24 0.24 0.26 0.25 0.25 0.27 0.28 0.28 0.29 0.30 0.31 0.31 0.31 0.31 0.31 0.31 0.31 0.30 0.30 0.30 0.31 0.31 0.32 0.32 0.32 0.32 0.31 0.31 0.30
0.29 0.30 0.31 0.30 0.30 0.30 0.29 0.29 0.29 0.29 0.29 0.27 0.25 0.23 0.23 0.24 0.25 0.25 0.27 0.29 0.29 0.29 0.29 0.28 0.28 0.28 0.28 0.28 0.28 0.28 0.28 0.27 0.26 0.25 0.23 0.21 0.22 0.20 0.18 0.18 0.19 0.19 0.22 0.23 0.24 0.23 0.22 0.24 0.24 0.24 0.25 0.26 0.26 0.26 0.27 0.28 0.29 0.29 0.29 0.29 0.28 0.29 0.29 0.30 0.30 0.30 0.30 0.31 0.31 0.31 0.31 0.31 0.31 0.30
0.27 0.28 0.29 0.30 0.30 0.29 0.29 0.30 0.30 0.30 0.30 0.27 0.26 0.25 0.24 0.23 0.23 0.23 0.25 0.26 0.27 0.28 0.28 0.29 0.29 0.28 0.28 0.28 0.28 0.28 0.28 0.27 0.27 0.24 0.21 0.22 0.22 0.20 0.20 0.18 0.18 0.19 0.20 0.21 0.23 0.21 0.21 0.23 0.23 0.22 0.23 0.24 0.24 0.25 0.25 0.26 0.26 0.26 0.26 0.26 0.26 0.27 0.27 0.27 0.27 0.28 0.28 0.29 0.30 0.30 0.30 0.29 0.29 0.29
0.26 0.26 0.27 0.28 0.30 0.30 0.29 0.30 0.30 0.30 0.31 0.29 0.27 0.26 0.25 0.23 0.22 0.23 0.25 0.25 0.25 0.27 0.27 0.28 0.29 0.29 0.29 0.29 0.28 0.27 0.27 0.27 0.26 0.26 0.25 0.24 0.22 0.20 0.20 0.20 0.19 0.17 0.18 0.20 0.23 0.19 0.20 0.21 0.22 0.22 0.21 0.20 0.22 0.24 0.24 0.24 0.24 0.24 0.24 0.23 0.22 0.22 0.22 0.24 0.25 0.26 0.27 0.27 0.26 0.26 0.26 0.26 0.25 0.25
0.25 0.26 0.27 0.27 0.27 0.29 0.30 0.30 0.30 0.30 0.31 0.29 0.28 0.27 0.25 0.23 0.22 0.26 0.26 0.26 0.26 0.26 0.26 0.26 0.27 0.27 0.28 0.28 0.28 0.27 0.27 0.27 0.26 0.25 0.26 0.25 0.23 0.22 0.21 0.20 0.19 0.18 0.19 0.22 0.23 0.20 0.20 0.21 0.20 0.22 0.21 0.19 0.19 0.21 0.22 0.22 0.22 0.22 0.22 0.21 0.20 0.20 0.21 0.21 0.22 0.22 0.22 0.21 0.21 0.21 0.21 0.21 0.21 0.21
0.24 0.25 0.26 0.27 0.27 0.28 0.29 0.29 0.29 0.30 0.30 0.30 0.29 0.28 0.25 0.25 0.26 0.28 0.27 0.28 0.28 0.27 0.27 0.27 0.27 0.27 0.27 0.27 0.27 0.27 0.27 0.27 0.26 0.25 0.25 0.25 0.24 0.23 0.21 0.20 0.20 0.19 0.20 0.22 0.23 0.21 0.19 0.19 0.19 0.20 0.20 0.20 0.19 0.19 0.19 0.20 0.20 0.20 0.20 0.20 0.20 0.19 0.19 0.19 0.20 0.20 0.19 0.20 0.20 0.19 0.19 0.19 0.19 0.19
0.25 0.25 0.25 0.26 0.26 0.27 0.29 0.29 0.29 0.29 0.30 0.31 0.30 0.28 0.28 0.28 0.29 0.29 0.30 0.29 0.29 0.28 0.27 0.27 0.27 0.26 0.26 0.26 0.26 0.26 0.26 0.26 0.26 0.26 0.25 0.25 0.24 0.24 0.24 0.22 0.20 0.19 0.20 0.22 0.23 0.21 0.19 0.18 0.19 0.18 0.18 0.18 0.18 0.18 0.17 0.18 0.18 0.19 0.19 0.19 0.19 0.19 0.19 0.18 0.18 0.18 0.19 0.18 0.18 0.18 0.17 0.17 0.17 0.18
0.25 0.26 0.26 0.26 0.26 0.26 0.27 0.29 0.29 0.29 0.30 0.31 0.31 0.31 0.31 0.31 0.31 0.31 0.30 0.29 0.28 0.27 0.27 0.26 0.25 0.26 0.26 0.25 0.25 0.25 0.25 0.25 0.26 0.26 0.25 0.25 0.24 0.24 0.24 0.24 0.23 0.22 0.22 0.22 0.23 0.21 0.20 0.19 0.19 0.18 0.17 0.17 0.17 0.16 0.16 0.16 0.16 0.17 0.17 0.18 0.18 0.18 0.19 0.18 0.18 0.18 0.18 0.17 0.17 0.17 0.17 0.17 0.17 0.18
0.26 0.26 0.26 0.25 0.25 0.25 0.26 0.28 0.29 0.29 0.29 0.30 0.31 0.32 0.32 0.32 0.32 0.31 0.29 0.28 0.27 0.26 0.26 0.25 0.25 0.25 0.25 0.26 0.25 0.25 0.26 0.26 0.26 0.25 0.25 0.25 0.24 0.23 0.23 0.23 0.23 0.23 0.22 0.21 0.21 0.20 0.19 0.18 0.18 0.18 0.17 0.16 0.15 0.14 0.14 0.15 0.15 0.15 0.15 0.16 0.17 0.17 0.17 0.17 0.17 0.17 0.17 0.17 0.17 0.17 0.16 0.15 0.15 0.15
0.25 0.25 0.25 0.25 0.24 0.25 0.25 0.26 0.28 0.29 0.30 0.31 0.31 0.32 0.31 0.32 0.31 0.29 0.28 0.27 0.26 0.25 0.24 0.24 0.24 0.25 0.25 0.25 0.26 0.26 0.26 0.26 0.25 0.24 0.24 0.23 0.23 0.23 0.22 0.22 0.21 0.21 0.21 0.20 0.20 0.19 0.18 0.18 0.17 0.17 0.16 0.15 0.15 0.14 0.14 0.14 0.14 0.14 0.15 0.15 0.15 0.15 0.16 0.16 0.16 0.15 0.15 0.16 0.16 0.16 0.16 0.15 0.15 0.15
0.25 0.25 0.26 0.26 0.26 0.26 0.26 0.26 0.26 0.27 0.29 0.31 0.30 0.30 0.31 0.29 0.28 0.28 0.27 0.26 0.25 0.24 0.25 0.24 0.24 0.24 0.24 0.24 0.24 0.25 0.25 0.24 0.23 0.23 0.22 0.21 0.21 0.21 0.21 0.20 0.19 0.19 0.19 0.19 0.19 0.18 0.18 0.18 0.17 0.16 0.16 0.15 0.15 0.14 0.14 0.13 0.13 0.14 0.14 0.14 0.14 0.15 0.15 0.14 0.14 0.14 0.14 0.14 0.14 0.15 0.15 0.16 0.15 0.15
0.24 0.25 0.25 0.26 0.26 0.26 0.26 0.26 0.27 0.27 0.29 0.29 0.29 0.28 0.28 0.28 0.28 0.28 0.27 0.26 0.25 0.25 0.25 0.24 0.24 0.24 0.24 0.24 0.24 0.23 0.23 0.22 0.22 0.22 0.22 0.21 0.20 0.20 0.20 0.19 0.18 0.18 0.18 0.18 0.18 0.18 0.17 0.17 0.16 0.16 0.14 0.14 0.14 0.14 0.14 0.14 0.13 0.13 0.13 0.13 0.13 0.12 0.13 0.14 0.14 0.13 0.14 0.14 0.14 0.14 0.14 0.14 0.14 0.15
0.24 0.24 0.24 0.25 0.25 0.25 0.25 0.25 0.25 0.26 0.26 0.26 0.26 0.26 0.26 0.26 0.27 0.27 0.27 0.27 0.26 0.25 0.25 0.24 0.24 0.23 0.23 0.22 0.22 0.22 0.22 0.21 0.21 0.21 0.21 0.20 0.19 0.19 0.19 0.17 0.17 0.17 0.16 0.16 0.16 0.16 0.16 0.16 0.15 0.15 0.14 0.13 0.12 0.12 0.13 0.13 0.12 0.12 0.12 0.13 0.13 0.13 0.13 0.13 0.13 0.13 0.13 0.13 0.13 0.13 0.13 0.13 0.13 0.14
0.25 0.24 0.24 0.23 0.23 0.23 0.23 0.23 0.23 0.23 0.24 0.24 0.25 0.26 0.26 0.26 0.26 0.25 0.26 0.25 0.24 0.24 0.24 0.23 0.22 0.22 0.22 0.21 0.21 0.21 0.21 0.20 0.20 0.20 0.20 0.20 0.19 0.18 0.18 0.17 0.17 0.16 0.15 0.15 0.15 0.15 0.15 0.15 0.15 0.14 0.14 0.13 0.13 0.12 0.12 0.11 0.11 0.12 0.12 0.12 0.12 0.12 0.12 0.12 0.12 0.12 0.13 0.13 0.12 0.12 0.12 0.13 0.13 0.13
0.24 0.24 0.23 0.23 0.23 0.23 0.23 0.23 0.23 0.23 0.23 0.23 0.24 0.24 0.25 0.25 0.25 0.25 0.24 0.24 0.23 0.23 0.22 0.22 0.22 0.21 0.21 0.20 0.20 0.20 0.20 0.20 0.20 0.20 0.20 0.19 0.19 0.18 0.17 0.16 0.15 0.15 0.14 0.14 0.14 0.14 0.14 0.14 0.14 0.13 0.13 0.13 0.13 0.13 0.12 0.11 0.10 0.11 0.11 0.11 0.12 0.11 0.12 0.12 0.12 0.12 0.12 0.12 0.12 0.12 0.12 0.12 0.12 0.13
0.24 0.23 0.23 0.23 0.23 0.23 0.23 0.22 0.22 0.22 0.22 0.22 0.23 0.24 0.24 0.24 0.24 0.23 0.23 0.22 0.22 0.22 0.21 0.21 0.21 0.21 0.21 0.20 0.20 0.20 0.20 0.19 0.19 0.19 0.19 0.18 0.18 0.17 0.16 0.15 0.14 0.14 0.14 0.13 0.13 0.13 0.13 0.13 0.12 0.12 0.12 0.11 0.11 0.11 0.12 0.12 0.11 0.10 0.11 0.11 0.11 0.11 0.11 0.11 0.12 0.12 0.12 0.12 0.12 0.11 0.11 0.11 0.11 0.12
0.23 0.23 0.23 0.22 0.22 0.23 0.22 0.23 0.23 0.23 0.23 0.23 0.23 0.23 0.23 0.23 0.23 0.22 0.21 0.22 0.21 0.21 0.21 0.21 0.21 0.21 0.20 0.20 0.20 0.20 0.20 0.19 0.19 0.18 0.18 0.17 0.17 0.16 0.15 0.14 0.14 0.13 0.13 0.13 0.12 0.12 0.12 0.12 0.11 0.10 0.10 0.10 0.09 0.09 0.09 0.12 0.11 0.10 0.10 0.09 0.10 0.10 0.10 0.11 0.11 0.11 0.11 0.11 0.11 0.11 0.10 0.10 0.10 0.11
0.22 0.22 0.22 0.22 0.22 0.22 0.22 0.22 0.23 0.23 0.23 0.23 0.23 0.23 0.22 0.21 0.21 0.21 0.21 0.22 0.21 0.21 0.21 0.21 0.20 0.20 0.20 0.20 0.20 0.19 0.19 0.19 0.18 0.18 0.17 0.17 0.16 0.15 0.14 0.14 0.13 0.13 0.12 0.12 0.12 0.12 0.11 0.11 0.11 0.10 0.09 0.09 0.08 0.08 0.08 0.10 0.11 0.12 0.10 0.10 0.10 0.10 0.10 0.10 0.10 0.10 0.10 0.11 0.10 0.10 0.10 0.10 0.10 0.11
0.21 0.21 0.21 0.22 0.22 0.22 0.22 0.22 0.22 0.22 0.22 0.22 0.22 0.22 0.22 0.21 0.21 0.21 0.21 0.21 0.21 0.21 0.21 0.20 0.20 0.20 0.20 0.20 0.19 0.19 0.19 0.18 0.18 0.17 0.17 0.16 0.14 0.14 0.13 0.13 0.12 0.12 0.11 0.11 0.11 0.11 0.11 0.11 0.10 0.10 0.09 0.08 0.08 0.08 0.08 0.09 0.10 0.11 0.12 0.11 0.10 0.10 0.11 0.10 0.10 0.10 0.10 0.11 0.10 0.11 0.11 0.10 0.10 0.11
0.21 0.21 0.21 0.21 0.21 0.22 0.21 0.22 0.22 0.22 0.22 0.22 0.22 0.21 0.21 0.20 0.20 0.20 0.20 0.20 0.20 0.20 0.20 0.20 0.20 0.20 0.19 0.19 0.19 0.19 0.18 0.17 0.17 0.17 0.15 0.14 0.13 0.12 0.12 0.11 0.11 0.11 0.11 0.10 0.10 0.10 0.10 0.10 0.10 0.09 0.09 0.09 0.09 0.09 0.09 0.09 0.09 0.10 0.12 0.13 0.12 0.11 0.11 0.10 0.10 0.10 0.10 0.10 0.10 0.11 0.11 0.11 0.12 0.12
0.21 0.21 0.21 0.21 0.21 0.21 0.21 0.22 0.22 0.22 0.21 0.21 0.21 0.21 0.20 0.20 0.19 0.19 0.19 0.20 0.20 0.20 0.20 0.19 0.19 0.19 0.19 0.19 0.19 0.18 0.18 0.17 0.16 0.15 0.13 0.12 0.11 0.11 0.10 0.10 0.10 0.10 0.10 0.09 0.09 0.09 0.09 0.09 0.10 0.10 0.10 0.10 0.10 0.11 0.10 0.10 0.10 0.11 0.11 0.11 0.12 0.12 0.11 0.11 0.10 0.10 0.10 0.11 0.11 0.10 0.10 0.10 0.10 0.10
0.21 0.21 0.21 0.21 0.21 0.21 0.21 0.21 0.21 0.21 0.21 0.21 0.20 0.20 0.20 0.19 0.18 0.17 0.18 0.19 0.19 0.19 0.19 0.19 0.19 0.18 0.18 0.18 0.17 0.16 0.15 0.14 0.13 0.12 0.11 0.10 0.10 0.10 0.10 0.10 0.09 0.09 0.09 0.09 0.09 0.09 0.09 0.10 0.11 0.11 0.11 0.11 0.11 0.11 0.10 0.10 0.09 0.09 0.09 0.10 0.11 0.12 0.12 0.12 0.12 0.11 0.11 0.11 0.11 0.10 0.09 0.09 0.09 0.09
0.21 0.21 0.21 0.21 0.21 0.21 0.21 0.21 0.21 0.21 0.21 0.20 0.20 0.19 0.19 0.18 0.17 0.16 0.16 0.16 0.17 0.17 0.17 0.17 0.16 0.16 0.15 0.15 0.14 0.13 0.12 0.11 0.10 0.09 0.09 0.09 0.09 0.09 0.09 0.09 0.09 0.09 0.09 0.09 0.09 0.09 0.10 0.11 0.11 0.11 0.11 0.11 0.11 0.10 0.09 0.09 0.09 0.09 0.09 0.10 0.10 0.11 0.12 0.12 0.12 0.12 0.12 0.11 0.10 0.09 0.09 0.08 0.08 0.07
0.21 0.21 0.21 0.21 0.21 0.21 0.21 0.21 0.21 0.21 0.20 0.20 0.20 0.19 0.18 0.16 0.15 0.14 0.13 0.13 0.14 0.14 0.14 0.13 0.13 0.13 0.12 0.12 0.11 0.11 0.10 0.09 0.09 0.09 0.09 0.09 0.09 0.09 0.09 0.09 0.09 0.09 0.09 0.09 0.10 0.10 0.10 0.11 0.11 0.11 0.11 0.11 0.11 0.10 0.10 0.10 0.10 0.10 0.09 0.09 0.09 0.10 0.10 0.11 0.11 0.11 0.11 0.11 0.11 0.10 0.09 0.08 0.07 0.06
0.21 0.21 0.21 0.21 0.21 0.21 0.21 0.21 0.21 0.21 0.20 0.20 0.20 0.19 0.18 0.16 0.14 0.12 0.12 0.11 0.11 0.11 0.11 0.11 0.11 0.10 0.10 0.10 0.10 0.09 0.09 0.09 0.09 0.09 0.09 0.09 0.09 0.09 0.09 0.09 0.09 0.09 0.09 0.10 0.10 0.10 0.10 0.11 0.11 0.11 0.11 0.10 0.10 0.10 0.10 0.10 0.09 0.09 0.09 0.09 0.09 0.09 0.10 0.10 0.10 0.10 0.09 0.09 0.09 0.09 0.09 0.08 0.08 0.07
0.22 0.21 0.21 0.21 0.21 0.21 0.21 0.21 0.20 0.20 0.20 0.19 0.18 0.17 0.16 0.15 0.14 0.12 0.11 0.10 0.10 0.09 0.09 0.09 0.09 0.09 0.09 0.09 0.09 0.09 0.09 0.09 0.09 0.09 0.10 0.10 0.10 0.10 0.10 0.10 0.10 0.10 0.10 0.10 0.10 0.10 0.10 0.10 0.11 0.11 0.10 0.10 0.10 0.10 0.10 0.09 0.09 0.09 0.09 0.09 0.09 0.09 0.09 0.08 0.07 0.07 0.06 0.06 0.07 0.07 0.07 0.07 0.07 0.08
Wind_Speed
55 55 55 56 56 57 57 57 57 58 59 60 59 59 58 57 55 54 54 54 55 54 54 54 54 54 55 55 56 56 56 56 56 56 55 55 55 55 55 55 55 54 54 53 53 52 52 51 51 51 51 51 51 50 50 50 50 50 49 48 47 47 47 48 48 48 48 48 48 48 48 48 48 48
53 54 55 56 56 57 57 58 58 58 59 59 60 60 59 59 58 56 55 55 55 54 54 54 54 54 54 55 55 56 56 56 56 56 56 56 55 55 55 55 55 55 54 54 54 53 52 52 51 51 51 51 51 50 50 50 50 50 49 49 48 48 47 47 47 48 48 48 49 48 48 48 48 48
50 52 54 56 57 57 58 58 59 59 60 59 59 60 60 60 59 58 57 57 56 55 54 55 54 54 54 55 55 56 56 56 57 56 56 56 56 55 55 55 55 55 55 54 54 53 53 52 52 51 51 50 50 50 50 50 50 50 50 50 49 49 48 48 48 48 48 48 48 48 49 48 48 48
46 49 51 53 55 57 58 58 59 59 60 60 59 59 59 60 60 59 58 58 58 57 56 55 55 54 54 54 55 56 56 56 57 56 56 56 55 55 55 55 55 55 55 55 55 54 54 53 53 52 51 51 50 50 50 50 49 49 50 50 50 50 49 49 49 49 48 48 48 48 48 48 48 48
43 45 47 49 51 53 56 58 59 59 59 60 60 60 59 59 60 60 59 59 59 58 57 56 56 55 55 54 54 55 55 56 56 56 56 56 55 55 55 55 55 55 55 55 55 55 55 54 54 53 52 51 51 51 50 50 50 50 50 50 50 50 50 49 49 49 48 48 48 48 47 47 47 47
41 43 44 45 46 48 51 54 56 58 59 60 60 60 60 60 60 60 60 60 60 59 58 58 57 56 56 55 55 54 55 55 55 55 56 56 56 55 55 55 55 55 55 55 55 55 55 55 54 54 54 53 52 52 51 51 51 50 50 50 50 49 49 48 48 48 48 47 47 47 47 47 48 48
39 40 42 43 43 44 46 48 50 53 56 58 59 60 61 61 60 60 60 60 60 60 59 59 58 57 57 57 56 55 55 55 55 55 55 55 56 56 56 55 55 55 56 56 56 55 55 55 55 55 55 54 54 54 53 52 52 51 50 50 50 49 49 49 48 48 48 48 47 48 48 48 48 48
36 38 39 40 41 42 43 45 46 48 50 53 55 58 59 60 61 60 60 61 61 60 59 59 59 58 58 58 57 56 56 56 56 55 55 55 56 56 56 56 56 56 56 57 57 57 56 56 56 56 55 55 55 55 55 54 53 52 52 51 51 50 50 50 49 49 49 48 48 48 48 48 48 48
33 35 36 37 38 40 41 42 43 44 46 48 50 53 55 57 58 59 59 60 60 60 60 59 58 58 58 58 57 57 57 56 56 56 56 56 56 56 56 56 56 56 57 57 58 58 58 57 57 57 56 56 55 55 55 55 54 53 53 53 52 52 51 51 50 50 50 50 49 49 49 49 49 49
31 32 33 34 36 37 38 39 40 42 43 45 46 49 50 52 54 56 57 58 58 59 60 59 58 58 58 58 57 58 58 57 57 56 57 57 57 57 57 57 57 57 57 58 58 58 58 58 58 58 57 57 56 56 56 55 56 55 55 55 54 54 53 52 52 51 51 51 51 51 51 51 50 50
29 30 31 32 33 35 36 37 38 39 41 42 44 45 47 49 50 52 54 55 56 57 58 59 59 59 58 58 57 57 57 57 57 57 57 58 58 58 58 58 58 57 58 58 58 59 58 58 58 58 58 58 58 57 57 57 57 57 56 56 56 55 55 54 54 53 53 52 52 52 52 52 52 52
29 30 30 31 32 33 34 35 36 37 38 39 41 42 44 46 48 49 50 52 53 55 56 57 58 58 58 58 57 57 57 57 58 58 58 58 58 58 59 58 58 58 58 58 58 59 59 59 59 59 59 59 59 58 58 58 58 58 58 57 57 56 56 56 55 55 54 54 54 53 53 53 53 53
29 30 31 32 33 34 35 35 36 37 38 38 39 39 40 42 45 46 47 49 50 52 53 55 55 56 57 58 57 57 58 58 58 58 58 58 58 58 59 59 59 59 59 58 58 59 59 59 59 59 59 60 60 60 59 59 59 58 58 58 58 57 57 57 57 57 56 56 55 55 54 54 54 54
28 29 30 31 33 34 35 36 36 37 38 39 39 39 39 39 41 43 44 46 48 49 51 52 53 54 55 56 57 57 58 58 58 57 58 58 58 58 59 59 59 59 59 59 59 59 59 59 59 59 60 61 61 61 60 60 59 59 59 59 58 58 58 58 58 58 57 57 57 56 55 55 55 55
27 28 29 30 31 32 33 34 36 37 37 39 40 40 41 40 40 40 41 42 44 46 48 50 51 52 53 54 55 55 56 56 56 57 57 58 57 58 58 59 59 60 60 59 59 58 59 59 59 60 60 60 61 61 61 60 60 59 59 59 59 59 58 58 58 58 58 58 57 57 56 56 56 55
28 29 29 30 31 31 32 33 34 35 36 37 39 40 41 41 42 41 41 41 42 43 45 46 48 50 50 51 51 52 53 54 54 55 56 57 57 58 59 59 59 59 59 59 59 59 58 58 59 60 60 60 60 60 61 60 60 60 60 59 59 59 59 58 58 58 57 57 57 57 57 57 56 56
29 30 31 31 32 32 33 33 33 34 34 35 37 39 40 41 42 43 43 43 42 42 43 44 46 47 48 48 49 49 50 51 52 53 54 55 56 57 58 58 58 58 58 59 59 59 59 58 59 59 59 60 60 60 60 60 60 60 59 59 59 59 59 58 58 58 57 57 57 57 57 57 57 57
31 32 33 33 34 34 34 35 35 34 34 34 35 37 38 39 40 42 43 43 43 42 42 43 44 45 45 46 46 46 48 49 51 52 53 54 54 55 56 56 56 56 57 58 58 58 59 59 59 59 59 59 60 60 60 60 60 59 59 59 59 59 59 58 58 58 57 57 57 57 57 57 57 57
32 33 34 35 36 36 36 36 36 36 35 35 34 35 35 36 37 39 40 41 41 41 41 42 42 43 43 44 44 44 45 47 48 49 50 51 52 53 54 54 55 55 56 57 57 57 58 58 59 59 59 58 59 59 59 60 59 59 59 59 59 59 59 58 58 58 58 58 57 57 57 57 57 58
32 34 35 36 37 37 37 37 37 37 36 35 35 35 34 34 35 36 37 39 40 40 40 40 41 41 42 43 43 44 44 44 45 46 47 48 49 50 51 52 53 54 55 55 55 55 55 56 57 58 57 57 58 58 58 58 59 59 59 58 58 58 58 58 58 58 58 58 58 58 58 58 58 58
33 34 35 36 36 37 38 38 38 38 37 36 35 35 34 33 32 33 34 36 38 40 40 41 41 41 42 42 43 44 44 43 43 44 45 46 46 47 48 49 50 51 52 53 54 53 53 54 55 55 55 56 57 57 57 57 58 58 58 58 58 58 58 58 58 58 58 58 58 58 58 58 58 58
31 33 35 36 36 36 37 38 38 38 37 36 35 34 33 32 31 30 30 32 34 36 38 39 40 41 42 43 43 44 44 44 44 44 45 45 45 46 46 46 46 47 48 49 50 51 51 52 53 53 53 54 56 57 57 57 58 58 58 58 58 58 58 58 58 58 58 58 58 58 58 57 57 57
28 29 31 33 35 35 35 36 36 36 37 36 35 33 32 31 30 29 29 30 30 31 33 35 36 38 39 41 42 42 44 44 45 45 45 45 45 45 46 45 44 44 46 47 47 48 49 50 51 51 52 52 54 55 56 57 58 58 58 59 59 59 59 59 58 58 58 58 58 58 57 57 57 57
24 25 26 28 31 33 34 34 34 34 35 35 35 34 32 30 29 29 28 29 29 29 29 30 31 33 34 36 38 39 41 43 43 44 45 45 45 45 45 45 45 45 45 46 46 46 46 47 49 50 50 50 51 51 53 54 55 56 57 57 57 58 58 58 57 57 57 57 57 57 57 56 56 56
21 21 22 23 25 28 31 33 33 32 33 34 34 33 32 31 29 28 28 28 28 28 28 29 29 29 30 31 33 34 36 38 40 42 43 44 44 45 45 45 46 45 45 45 46 46 45 45 46 47 48 49 49 49 49 50 51 53 54 54 55 55 55 55 56 56 56 56 56 56 56 56 56 56
18 17 18 19 21 23 27 30 31 31 31 32 32 32 31 30 29 28 27 27 27 27 28 28 28 29 29 30 30 31 32 34 36 38 40 41 42 43 44 44 44 44 44 44 45 45 44 44 44 45 46 47 48 48 48 48 49 50 51 52 53 53 53 54 54 54 54 55 55 55 56 56 56 56
13 13 14 15 17 19 22 26 29 30 29 29 29 30 30 29 28 27 26 26 27 27 27 27 28 29 29 30 31 31 31 32 33 35 36 38 39 40 41 41 41 42 42 42 43 43 43 43 43 43 43 44 45 46 47 48 48 48 49 50 51 52 53 53 53 53 53 54 54 54 55 55 55 55
7 6 8 11 13 16 19 22 25 27 27 26 26 27 28 27 27 26 25 26 26 26 26 26 27 28 29 29 30 30 31 31 31 32 33 34 35 36 37 37 38 38 39 39 40 41 41 41 41 41 41 41 42 44 45 46 47 48 48 49 50 51 52 52 52 52 52 53 53 53 53 53 53 54
6 2 3 6 9 12 15 19 22 23 24 24 23 24 24 24 24 24 24 24 23 23 23 23 24 25 25 26 27 28 28 28 29 29 29 30 31 32 32 33 34 35 36 37 37 38 39 39 39 39 40 40 40 41 42 43 44 45 47 48 48 49 50 50 51 51 51 52 52 52 53 53 53 53
7 5 2 3 5 8 12 16 19 20 20 20 20 20 20 20 20 21 21 21 20 20 20 20 21 21 22 23 24 24 25 25 25 26 26 27 28 29 29 30 31 32 33 34 35 36 37 37 37 38 38 39 39 39 40 40 41 42 43 44 45 46 47 48 48 49 49 50 51 51 52 53 53 53
8 7 7 6 6 8 11 15 17 18 17 17 17 16 16 17 17 18 18 18 18 18 18 18 19 19 20 21 22 23 23 23 23 24 25 25 26 27 27 28 29 30 31 32 32 33 34 35 36 36 37 37 38 38 38 38 39 39 40 40 41 41 42 43 44 45 45 46 47 48 49 50 51 51
9 9 9 9 10 11 13 15 16 16 16 15 15 14 14 14 14 14 15 15 15 15 15 16 16 17 19 20 20 21 22 22 22 23 23 24 24 25 25 26 26 27 28 29 30 31 31 32 33 34 34 35 35 36 36 36 37 37 38 38 38 39 39 40 41 41 42 43 44 45 46 47 47 48
7 8 8 9 10 11 13 14 14 14 14 13 13 12 12 12 13 13 13 13 13 13 13 14 15 16 16 17 18 19 19 19 20 21 22 22 22 22 23 24 24 25 26 26 27 27 28 28 29 30 30 31 32 32 33 34 35 35 36 36 36 37 38 38 39 39 40 41 43 44 44 45 45 45
5 6 7 7 7 8 10 11 11 12 12 12 12 11 11 12 12 12 12 12 12 12 13 13 14 14 15 15 16 17 17 17 18 19 19 19 20 20 21 21 22 22 23 23 24 24 24 25 25 26 26 28 29 30 31 32 32 33 34 34 35 36 37 37 38 39 40 40 41 42 43 43 43 44
4 4 4 5 5 6 6 7 8 9 9 10 10 10 10 10 10 10 10 10 11 11 12 12 13 13 14 15 16 16 16 16 17 17 17 17 18 18 19 19 19 20 20 21 21 21 22 22 23 23 24 24 26 27 29 30 31 31 32 32 33 34 35 35 36 37 37 38 39 40 41 41 42 43
3 3 3 3 3 4 5 5 6 7 8 8 9 9 8 8 8 9 9 10 10 11 11 11 12 12 13 14 15 15 15 15 16 16 16 16 17 17 17 17 18 18 18 19 19 19 20 20 21 21 22 22 23 24 26 27 29 29 30 30 31 32 32 33 34 35 35 36 38 39 40 41 42 42
3 2 2 2 2 3 4 4 5 6 7 7 8 8 8 7 7 8 8 8 9 9 10 10 11 11 12 13 14 14 14 15 15 15 16 16 16 16 16 17 17 17 17 18 18 18 19 19 20 20 20 21 22 23 23 24 26 27 28 29 30 30 31 32 33 35 36 37 38 39 41 42 43 43
4 3 3 2 2 2 3 3 4 5 5 6 6 6 6 6 6 6 7 7 8 8 9 9 9 10 11 12 13 13 13 14 14 15 15 15 16 16 16 16 17 17 17 17 18 18 19 19 20 20 20 20 21 22 22 23 24 26 27 29 29 30 31 33 34 35 36 37 39 40 41 42 44 44
5 4 4 3 3 3 3 3 3 4 4 5 5 5 5 5 5 6 6 7 7 8 8 8 9 9 10 11 12 12 13 13 13 14 14 15 15 16 16 16 16 17 17 17 18 18 19 19 20 21 21 22 22 22 23 24 25 26 28 29 30 31 32 34 35 36 37 38 39 40 41 42 44 45
5 5 4 4 3 3 3 3 3 4 4 4 4 4 4 4 4 5 5 6 7 7 8 8 9 9 10 10 11 12 12 13 13 14 14 15 15 16 16 16 17 17 17 18 18 19 20 20 21 22 22 23 24 24 25 26 27 28 29 31 32 33 34 35 36 37 38 38 39 40 41 42 43 44
5 5 4 3 3 3 3 3 3 3 4 3 3 3 3 3 3 4 5 5 6 7 8 8 9 9 10 11 11 12 12 13 13 14 15 15 16 16 17 17 17 18 18 19 20 21 21 22 22 23 24 24 25 26 27 28 29 30 31 32 33 34 35 36 37 38 39 39 40 41 42 43 44 45
5 4 4 3 3 3 3 3 3 3 2 2 2 2 1 2 3 4 4 5 6 7 8 8 9 10 10 11 12 12 13 14 14 15 16 16 17 17 18 18 19 20 20 21 22 22 23 23 24 25 25 26 27 28 29 30 31 32 33 33 34 35 37 38 39 40 41 41 42 43 43 43 44 45
5 4 3 3 2 2 2 2 2 2 2 2 2 2 2 2 3 3 4 5 6 7 8 8 9 10 11 11 12 13 14 14 15 16 17 18 18 19 20 20 21 22 22 23 24 24 24 25 26 26 27 28 30 31 32 33 33 34 35 36 36 37 38 39 41 42 43 44 44 45 45 45 45 46
5 4 3 2 2 1 1 1 2 2 2 2 2 3 3 3 3 4 4 5 6 7 7 8 9 10 11 12 12 13 14 15 16 17 18 19 20 20 21 22 23 23 24 25 25 26 27 27 28 29 30 31 32 33 34 35 36 36 37 37 38 39 39 40 41 42 43 44 45 46 47 48 49 49
4 4 3 2 1 0 0 1 1 2 2 3 3 3 4 4 4 5 5 6 6 7 8 9 10 10 11 12 13 14 15 16 17 18 19 20 21 21 22 23 24 24 25 26 27 28 29 29 30 31 32 33 34 35 36 37 37 37 38 38 39 40 40 41 42 42 43 43 44 45 47 48 48 50
Wind_Direction
237 237 237 237 237 237 237 237 237 238 238 238 238 238 238 238 239 239 239 240 240 240 239 240 240 240 240 239 239 239 239 239 239 239 239 240 240 240 240 240 240 240 240 240 240 240 240 240 241 241 242 242 242 242 242 242 243 243 244 245 246 245 245 246 246 247 247 248 248 249 249 249 250 250
237 237 238 238 238 237 237 237 237 237 238 238 238 239 239 239 239 239 240 240 239 239 239 239 240 240 239 239 239 239 239 239 238 238 238 239 239 239 239 239 239 239 239 239 239 239 239 240 240 241 241 242 242 242 242 242 242 242 243 243 244 245 245 245 246 247 247 247 248 248 248 248 249 249
238 238 239 239 240 239 239 238 238 238 238 239 239 239 239 239 239 239 240 240 239 238 239 240 239 239 240 239 239 239 239 238 238 238 238 238 239 239 239 239 239 239 239 239 239 239 239 239 240 240 241 241 242 242 243 243 242 242 242 242 243 243 244 245 246 247 247 247 248 248 248 248 249 248
238 239 240 240 241 241 240 239 239 239 239 239 239 239 239 239 239 239 239 240 240 239 239 239 239 239 239 240 239 239 239 239 238 238 238 238 238 239 239 240 240 240 240 239 239 239 240 240 240 240 241 241 241 242 242 242 242 242 242 242 243 243 244 245 246 247 247 248 248 248 248 248 249 248
239 239 240 241 241 241 241 240 240 239 238 238 238 238 239 239 239 239 239 239 240 239 239 239 239 239 239 239 240 239 239 239 238 238 238 238 238 239 239 240 240 240 240 240 240 240 240 240 240 241 241 241 241 241 241 242 242 242 242 242 243 244 245 246 246 246 247 247 248 248 248 249 249 249
239 240 240 241 242 241 241 240 240 239 239 238 238 238 238 239 239 239 239 239 239 239 239 238 238 238 238 239 239 239 239 239 238 238 238 238 238 238 239 240 240 240 240 240 240 240 240 240 241 241 242 242 242 241 241 241 242 242 242 243 243 244 245 245 246 246 247 247 248 248 249 249 249 249
240 240 240 240 240 240 241 241 240 240 239 239 238 238 238 239 239 239 239 239 239 239 239 238 238 238 238 238 239 239 238 238 238 238 238 238 238 238 239 239 240 240 240 240 240 240 241 241 241 242 242 242 242 242 242 242 242 242 243 243 244 245 245 246 246 247 247 248 248 248 249 249 249 249
241 240 239 239 239 240 240 241 241 241 240 240 239 239 239 239 239 239 239 239 239 239 239 238 238 238 238 238 238 238 238 237 237 238 238 238 238 238 239 239 240 240 240 240 241 241 241 241 242 242 243 243 243 242 242 242 242 243 243 244 244 245 245 246 247 247 248 248 248 249 249 249 250 250
240 240 239 239 239 239 240 240 241 241 240 240 240 239 239 238 238 239 239 239 239 239 239 239 238 238 238 238 238 238 237 237 237 237 237 237 238 238 239 239 240 240 240 240 241 241 241 242 242 242 242 242 242 242 242 242 242 243 243 244 245 245 246 247 247 248 248 249 249 249 250 250 250 250
240 240 239 239 239 239 239 240 240 240 240 240 240 239 238 238 238 238 238 239 239 239 239 238 238 237 237 238 238 238 237 237 237 237 237 238 238 239 239 240 240 240 240 241 241 241 241 242 242 242 242 242 242 242 242 242 242 243 243 244 245 246 246 247 248 248 249 249 249 250 250 250 251 251
242 241 241 241 240 240 240 240 241 240 240 240 240 240 239 238 237 237 237 237 238 239 239 239 237 237 237 237 238 238 237 237 237 237 237 238 239 239 239 240 240 241 241 241 241 241 241 242 241 241 241 241 241 241 242 242 243 243 244 244 245 246 246 247 248 249 249 250 250 250 251 251 251 251
243 243 242 242 242 242 242 242 242 241 241 240 240 239 239 238 237 236 236 236 237 238 239 239 238 237 237 237 238 238 237 237 238 239 239 239 240 240 240 240 241 241 242 242 242 242 242 242 242 241 241 241 241 241 242 242 243 244 244 245 245 246 247 248 249 249 250 250 250 251 251 251 251 252
244 244 244 244 244 244 244 243 243 243 242 241 240 239 238 238 237 236 236 236 236 237 238 238 238 238 238 237 237 237 237 238 239 240 239 240 240 241 241 241 241 241 242 242 242 242 242 242 242 242 241 241 241 242 242 243 243 244 245 245 246 247 247 248 249 250 250 250 251 251 251 251 252 252
247 246 246 245 245 245 245 245 244 244 243 242 241 240 238 238 237 236 236 236 236 236 237 238 238 238 238 238 238 238 239 239 240 239 239 240 240 240 241 242 242 241 241 242 243 242 242 242 242 242 242 242 242 242 243 243 244 244 245 246 246 247 248 249 249 250 250 250 251 251 251 252 252 252
248 248 247 247 246 246 245 245 245 244 243 242 241 240 239 238 237 237 236 236 236 236 237 237 237 238 238 239 239 239 240 239 239 239 239 240 240 240 240 242 242 241 241 242 243 243 242 242 242 242 242 242 242 242 243 243 244 245 246 246 247 247 248 249 249 250 250 250 250 251 251 251 251 252
250 249 249 248 248 247 246 246 245 244 243 242 241 240 240 239 238 238 238 237 236 236 236 237 237 238 238 238 238 239 239 240 239 239 239 239 239 239 240 241 242 241 240 240 242 242 242 242 242 242 242 242 242 243 243 244 245 245 246 247 247 247 248 249 249 249 250 250 250 250 251 251 251 251
252 252 251 250 249 248 247 246 246 245 243 242 241 240 240 239 239 239 239 239 239 238 237 237 237 237 238 238 238 238 239 239 239 239 239 239 239 239 240 241 241 241 240 240 241 242 242 242 242 242 242 242 242 243 243 244 245 246 246 246 247 247 248 248 248 249 249 249 250 250 250 250 251 251
255 254 253 252 251 249 248 247 246 244 243 242 241 240 240 239 239 239 239 239 239 239 239 238 238 238 238 238 238 238 239 239 239 239 240 240 240 240 240 241 240 240 240 240 241 242 242 242 242 242 242 242 243 243 243 244 244 245 245 246 246 247 247 247 247 248 248 249 249 250 250 250 250 251
258 256 255 253 252 250 248 246 245 243 242 240 239 239 239 239 239 239 238 238 238 238 238 238 239 238 238 239 239 239 239 240 240 240 240 240 240 240 240 240 240 240 240 240 241 242 242 242 242 243 243 243 243 243 243 243 244 244 244 245 246 246 246 246 247 247 248 248 249 249 250 250 250 251
261 258 256 254 252 250 248 245 243 242 240 239 237 237 238 238 238 238 238 237 237 237 238 238 239 239 239 239 239 239 239 240 241 240 240 240 239 239 240 240 240 240 241 240 241 242 243 243 243 243 243 243 243 243 242 243 243 243 244 245 245 246 246 246 246 247 248 248 249 249 250 250 251 251
264 260 257 254 251 249 246 244 241 239 238 236 236 235 236 237 237 238 237 237 237 237 238 238 238 239 239 239 240 240 239 240 240 239 239 239 239 239 240 240 241 241 241 240 241 242 244 244 244 244 244 243 243 242 242 242 243 243 244 244 245 245 246 246 247 248 248 249 249 249 250 250 251 252
268 262 257 253 249 247 244 242 239 237 235 234 233 233 233 234 235 235 235 235 236 237 238 238 238 238 239 239 240 240 240 239 239 239 240 240 239 239 240 240 240 240 241 240 240 241 243 244 244 244 244 244 244 243 243 243 243 244 244 244 245 245 246 247 248 248 248 248 249 250 250 251 251 252
272 265 257 251 246 243 241 238 236 234 232 231 231 230 230 232 233 234 234 234 235 236 236 237 238 239 239 239 240 240 239 239 239 239 240 240 239 240 240 240 239 240 241 240 239 241 242 243 243 243 244 245 245 245 244 244 244 244 244 245 245 246 247 247 248 248 248 249 249 250 250 250 251 251
275 266 258 251 245 240 237 234 232 230 230 229 228 228 229 230 232 233 233 233 234 234 235 236 237 238 238 239 240 240 239 239 239 239 239 239 239 239 239 239 239 241 242 240 239 240 242 242 242 243 243 244 245 245 245 244 244 244 244 245 245 246 246 247 247 248 249 249 249 249 249 250 250 250
278 266 257 251 244 238 233 230 227 227 226 225 225 226 228 229 231 232 233 234 234 235 236 236 236 236 237 239 240 240 240 240 239 238 239 239 239 238 238 238 239 240 241 240 239 240 242 242 242 242 243 243 244 244 245 245 244 244 244 244 245 245 246 246 247 247 248 248 248 248 249 249 249 250
281 266 255 248 242 236 230 225 223 222 223 222 222 224 227 228 230 232 234 235 235 237 237 237 237 238 238 239 240 240 240 240 239 238 239 239 239 239 239 239 239 240 241 240 239 240 241 242 242 243 243 243 244 244 244 244 244 244 244 245 245 245 245 246 246 247 247 247 247 248 248 249 249 250
286 267 252 242 236 231 226 222 218 218 219 219 220 222 224 227 229 231 233 234 235 236 238 238 238 239 240 240 241 241 240 240 240 240 239 238 238 239 239 239 239 239 240 240 239 240 241 242 243 243 243 243 244 244 244 244 245 245 245 245 245 245 246 246 247 247 247 248 248 248 248 249 249 250
316 274 245 235 229 223 219 215 212 212 213 215 216 219 222 226 228 229 230 232 234 236 238 239 239 239 239 239 240 241 241 241 241 240 239 238 237 237 237 237 237 237 238 238 239 240 241 243 243 243 243 243 243 244 244 245 245 245 245 246 246 246 247 247 248 248 248 248 248 248 249 249 250 250
11 353 237 223 218 213 208 205 203 203 205 208 212 216 219 222 224 225 227 230 233 235 237 237 238 238 238 238 239 239 239 238 238 237 237 236 235 235 235 235 236 236 237 238 239 240 241 243 243 243 243 243 243 244 244 245 245 245 246 246 246 247 247 247 248 248 248 248 248 249 250 250 251 252
31 42 69 169 187 190 191 192 192 193 196 201 205 208 211 214 217 220 223 226 229 232 234 235 236 237 238 238 237 236 235 234 233 232 232 232 232 232 232 232 234 236 238 239 240 240 241 242 242 242 242 243 243 244 244 245 245 246 246 246 246 246 246 247 247 247 248 248 249 249 250 251 252 253
42 56 75 100 130 150 161 169 175 179 183 187 192 195 200 206 211 216 220 224 227 231 233 235 237 238 238 236 234 232 231 230 230 230 230 229 230 231 232 233 235 237 239 240 240 241 241 241 241 241 241 242 243 243 244 244 245 245 245 245 245 246 246 246 247 247 248 248 249 249 250 251 252 252
50 63 79 95 110 126 139 150 159 166 171 177 182 188 195 202 208 214 219 224 228 231 234 236 237 237 236 233 231 229 228 228 229 229 229 229 230 232 233 234 235 237 238 239 240 241 241 241 241 241 241 241 242 242 243 243 244 244 245 245 245 246 247 247 247 248 248 248 249 249 250 250 251 251
58 66 78 95 111 123 135 145 154 162 169 176 183 189 197 204 211 217 222 225 229 233 235 235 235 234 231 228 226 225 225 225 226 226 227 228 230 232 233 234 235 236 237 238 238 239 239 239 239 239 240 240 241 241 241 242 242 243 244 245 246 246 247 248 248 248 248 249 249 250 250 250 251 251
58 69 78 93 111 126 139 150 159 168 175 182 190 197 203 209 214 219 224 228 232 233 232 231 229 228 225 222 219 217 218 219 220 221 223 225 227 229 230 231 232 233 233 234 234 235 235 235 236 238 239 240 241 241 241 241 242 243 244 246 246 247 247 248 248 248 249 249 250 251 251 251 252 253
54 69 82 96 112 127 141 153 165 175 182 189 195 201 206 211 216 221 226 230 232 231 229 227 226 225 221 218 216 215 215 216 217 218 221 224 225 226 227 227 229 230 230 230 230 231 232 234 235 238 240 241 243 243 243 242 243 244 245 246 247 248 248 249 249 250 250 251 251 252 252 253 254 255
61 73 89 104 122 136 149 161 172 180 187 194 200 203 207 213 218 222 226 230 231 229 226 225 225 224 221 218 217 216 216 216 217 220 222 223 223 224 225 226 227 228 228 228 228 229 231 233 234 236 238 240 242 244 244 243 242 243 245 246 248 249 250 251 251 252 253 254 254 254 255 255 256 257
63 74 93 111 132 149 161 173 182 189 196 201 204 207 210 215 221 225 226 227 226 223 221 220 220 220 219 218 217 216 216 217 219 221 223 224 225 225 226 227 228 228 228 228 229 230 232 233 234 235 237 239 241 244 246 246 245 245 246 249 251 252 253 254 255 255 256 257 257 257 258 257 258 259
70 78 88 99 121 141 156 171 181 188 194 198 200 202 206 211 217 220 219 216 214 213 214 215 215 215 214 214 214 214 216 218 219 221 222 224 225 225 226 227 229 229 230 231 232 234 235 236 237 238 239 241 244 246 248 249 250 250 250 251 254 255 256 257 258 258 259 260 260 260 260 260 260 261
77 84 90 95 106 120 133 147 160 169 176 183 188 194 200 206 210 211 211 209 207 207 208 210 212 212 212 213 213 214 215 217 219 221 222 223 224 225 227 228 229 230 232 233 235 236 238 240 241 242 244 246 248 250 252 253 255 256 255 255 256 258 259 259 259 260 261 261 262 262 262 262 263 263
78 84 92 99 103 109 119 129 140 150 158 165 173 181 191 199 203 206 210 210 208 209 211 212 214 214 215 216 217 218 219 221 222 223 224 225 226 228 229 231 232 233 234 236 238 241 243 244 246 248 249 251 253 255 257 258 260 260 261 260 260 260 261 261 262 262 263 263 264 264 265 265 265 266
72 77 84 93 101 108 114 120 129 142 151 157 162 170 183 196 203 210 215 217 217 217 217 218 220 221 222 223 224 225 227 229 230 230 230 230 232 234 235 236 237 238 240 242 244 246 248 250 251 252 253 255 257 259 260 261 262 263 265 265 264 264 263 264 264 264 265 265 266 266 267 267 268 268
60 67 72 79 93 110 120 125 135 149 157 162 170 183 204 218 224 225 224 224 226 226 225 226 227 228 230 231 232 233 234 234 234 235 236 237 238 239 240 242 243 244 245 248 250 251 253 255 256 256 257 259 260 261 262 263 264 265 267 268 268 267 267 266 266 266 266 266 267 267 268 268 268 268
46 54 61 69 82 105 124 137 153 172 187 199 216 238 251 253 252 246 238 233 233 234 236 236 236 237 238 238 238 239 239 240 240 241 242 242 243 244 245 246 248 249 251 253 255 257 258 259 259 260 261 262 263 263 264 265 266 267 268 269 269 270 269 269 269 268 268 267 267 267 267 268 268 268
31 38 47 60 74 98 128 154 177 198 215 226 236 248 257 263 267 264 255 248 246 245 246 246 246 246 246 245 245 245 246 247 247 247 247 248 248 249 250 252 253 255 256 258 260 261 262 263 264 264 264 265 266 266 266 267 268 268 269 270 270 271 271 272 271 271 270 270 269 269 268 268 268 269
11 16 22 26 29 57 200 214 217 223 233 239 244 252 260 268 273 274 268 262 259 257 257 256 256 255 254 254 253 253 253 254 254 254 254 254 254 255 257 258 259 260 261 262 263 264 265 266 267 267 267 268 268 268 268 269 269 270 270 271 271 272 273 273 273 273 272 272 272 271 270 270 270 270